User: anonymous   Login
Location: Caltech
(34.1382°N, 118.1253°W)
Time: 17:15:13
(UTC-07:00)
Language:

Gbstr 26 Del rocket - Orbit

View from above orbital plane
View from above orbital plane
View from above satellite
View from above satellite

Ground track
Ground track

The orbit data is extracted from the following two-line orbital elements,

1 25876U 99041E   16206.88406874 -.00000111  00000-0  22393-4 0  9998
2 25876  51.7630 167.9646 0532935 154.2321 208.6219 14.03842960868643
Epoch (UTC): 24 July 2016 21:13:03
Eccentricity: 0.0532935
inclination: 51.7630°
perigee height: 493 km
apogee height: 1267 km
right ascension of ascending node: 167.9646°
argument of perigee: 154.2321°
revolutions per day: 14.03842960
mean anomaly at epoch: 208.6219°
orbit number at epoch: 86864

The dashed part of the orbit path shows where the satellite is in the earth's shadow,  

DLR